Regional Weather Roundup
Issued by NWS

Home | Current Version | Previous Version | Text Only | Print | Product List | Glossary On
Versions: 1 2 3 4 5 6 7 8 9 10 11 12 13 14 15 16 17 18 19 20 21 22 23 24 25 26 27 28 29 30 31 32 33 34 35 36 37 38 39 40 41 42 43 44 45 46 47 48 49 50
223
ASUS42 KTBW 032316
RWRFL
FLORIDA REGIONAL WEATHER ROUNDUP
NATIONAL WEATHER SERVICE TAMPA BAY RUSKIN FL
600 PM EST SAT DEC 03 2016

NOTE: "FAIR" INDICATES FEW OR NO CLOUDS BELOW 12,000 FEET WITH NO
SIGNIFICANT WEATHER AND/OR OBSTRUCTIONS TO VISIBILITY.

FLZ001>010-012>015-112-114-115-040000-
PANHANDLE FLORIDA

CITY           SKY/WX    TMP DP  RH WIND       PRES   REMARKS
PENSACOLA      PTCLDY    63  36  36 NE7       30.10F
PENSACOLA NAS  MOCLDY    63  40  42 NE6       30.10S
MILTON NAS     LGT RAIN  60  36  40 NE9       30.12F
CRESTVIEW      CLOUDY    60  36  40 NE5       30.14S
DUKE FIELD     MOCLDY    60  35  38 NE7       30.12S
VALPARAISO     MOCLDY    62  35  36 NE13      30.12R
MARY ESTHER    MOCLDY    61  34  36 NE8       30.10R
TRI COUNTY     FAIR      58  37  45 NE8       30.15S
PANAMA CITY    FAIR      62  37  39 N7        30.11R
TYNDALL AFB    PTCLDY    64  39  40 NE3       30.11R
APALACHICOLA   CLEAR     63  41  44 E5        30.10S

STATION/POSITION SKY/WX   TEMP    WIND        PRES    WAVE   SWELL
                          AIR SEA DIR/SP/G            HT/PER HT/PER
                          (F)     (DEG/KT/KT) (MB)    (FT/S) (FT/S)
30.1N   87.6W              66 70   90/ 17/ 21 1018.7S   6/ 7
29.2N   88.2W              72 76  100/ 17/ 23 1016.1S
28.8N   86.0W              70 75              1017.4F   6/ 7
PANAMA CITY BEAC           65 67   40/  6/ 10 1019.9R
TOWER C                    66      70/ 16/ 18 1019.6R
28.5N   84.5W              70 74   90/ 16/ 19 1017.8R   4/ 5

$$
FLZ011-016>038-118-127-128-134-139-239-040000-
NORTH FLORIDA

CITY           SKY/WX    TMP DP  RH WIND       PRES   REMARKS
MARIANNA       PTCLDY    59  38  45 NE8       30.14S
TALLAHASSEE    MOCLDY    64  38  38 NE8       30.13S
PERRY          CLOUDY    64  41  42 CALM      30.13S
CROSS CITY     CLEAR     63  50  63 NE3       30.11R
LAKE CITY      FAIR      61  50  67 E5        30.14R
GAINESVILLE    PTCLDY    65  50  58 E9        30.12S
WILLISTON      CLEAR     70  54  56 NE6       30.11R
PALATKA        FAIR      64  52  63 NE6       30.14S
MAYPORT NAS    CLEAR     63  51  65 NE13      30.15S
JACKSONVILLE   PTCLDY    57  47  69 N5        30.16S
JAX NAS        PTCLDY    64  49  57 NE9       30.16R
FERNANDINA BEA FAIR      63  50  63 NE7       30.15S
ST AUGUSTINE   CLEAR     65  53  65 NE9       30.15R
PALM COAST     CLEAR     63  55  77 NE12      30.12S

STATION/POSITION SKY/WX   TEMP    WIND        PRES    WAVE   SWELL
                          AIR SEA DIR/SP/G            HT/PER HT/PER
                          (F)     (DEG/KT/KT) (MB)    (FT/S) (FT/S)
SHELL POINT      NOT AVBL
KEATON BEACH               64      30/  4/  5 1019.7R
CEDAR KEY                  69      30/  5/  7 1019.2R
FERNANDINA                 62 66   30/  4/  9 1021.3R
30.7N   81.3W                 66                N/A     3/ 4
MAYPORT                    64 66   50/ 12/ 16 1020.9R
31.4N   80.9W              62 65   60/ 14/ 19 1021.8F   3/ 5   2/ 8
ST AUGUSTINE               66 67   20/ 16/ 17 1021.2R

$$
FLZ040-043>046-052-053-057-058-063-144-040000-
INTERIOR CENTRAL FLORIDA

CITY           SKY/WX    TMP DP  RH WIND       PRES   REMARKS
OCALA          CLEAR     73  52  46 E5        30.11R
THE VILLAGES     N/A     70  59  68 SE7       30.01R
LEESBURG       CLEAR     69  55  60 E9        30.11R
SANFORD        CLEAR     68  56  65 E6        30.11S
ORLANDO EXEC   CLEAR     69  57  65 NE8       30.10S
ORLANDO INTL   PTCLDY    70  56  61 NE8       30.10R
KISSIMMEE      CLEAR     70  58  65 E9        30.11R
WINTER HAVEN   CLEAR     71  56  58 E10       30.10R
LAKELAND       CLEAR     72  59  64 E8        30.08R
BARTOW         FAIR      70  57  64 E8        30.09R
OKEECHOBEE     CLEAR     68  61  77 NE5       30.09R

$$
FLZ041-047-054-059-064-141-147-040000-
EAST CENTRAL FLORIDA

CITY           SKY/WX    TMP DP  RH WIND       PRES   REMARKS
ORMOND BEACH   CLEAR     64  57  77 CALM      30.12S
DAYTONA BEACH  PTCLDY    65  56  72 E5        30.12S
DELAND         CLEAR     66  57  72 NE5       30.11S
NEW SMYRNA BEA CLEAR     70  57  64 E6        30.11F
JFK SPACE CTR  CLOUDY    66  56  71 E5        30.10R
TITUSVILLE     PTCLDY    70  57  64 E12       30.11S
CAPE CANAVERAL CLOUDY    69  58  66 E8        30.10R
PATRICK AFB    CLEAR     71  60  68 NE9       30.09S
MELBOURNE      PTCLDY    71  60  68 E12       30.09S
VERO BEACH     MOCLDY    71  61  70 E10       30.09S
FT PIERCE      PTCLDY    71  61  70 E6        30.09R
STUART         PTCLDY    75  64  69 E12       30.09S

STATION/POSITION SKY/WX   TEMP    WIND        PRES    WAVE   SWELL
                          AIR SEA DIR/SP/G            HT/PER HT/PER
                          (F)     (DEG/KT/KT) (MB)    (FT/S) (FT/S)
TRIDENT PIER               69 72   30/  4/  5 1019.2R
28.4N   80.5W                 71                N/A     2/ 8

$$
FLZ050-056-061-142-242-148-248-149-249-151-251-155-255-
160-260-040000-
WEST CENTRAL FLORIDA

CITY           SKY/WX    TMP DP  RH WIND       PRES   REMARKS
CRYSTAL RIVER  FAIR      68  52  56 CALM      30.08S
INVERNESS      FAIR      70  55  60 E3        30.10R
BROOKSVILLE    CLEAR     72  54  53 E9          N/A
CLEARWATER AIR FAIR      72  54  53 E3        30.06R
ST PETE CLEARW CLEAR     72  62  71 E5        30.06S
TAMPA INTL     CLEAR     75  56  51 NE3       30.07R
TAMPA EXEC     CLEAR     73  55  53 E5        30.08R
PLANT CITY     CLEAR     73  59  60 E8        30.09S
MACDILL AFB    CLEAR     73  59  62 E7        30.06R
PETER O KNIGHT CLEAR     75  61  60 E7        30.07R
ST PETERSBURG  CLEAR     70  65  84 E8        30.04S
SARASOTA       CLEAR     73  55  53 E6        30.04R
VENICE         FAIR      75  59  57 NE7       30.04S

STATION/POSITION SKY/WX   TEMP    WIND        PRES    WAVE   SWELL
                          AIR SEA DIR/SP/G            HT/PER HT/PER
                          (F)     (DEG/KT/KT) (MB)    (FT/S) (FT/S)
CLEARWATER BEACH           75 68   80/  4/  5 1018.0R
MIDDLE TAMPA BAY           73     100/  7/  8 1018.0R
VENICE                     76 70   60/  4/  6 1017.0R

$$
FLZ066-069-070-075>078-162-262-165-265-040000-
SOUTHWEST FLORIDA AND KEYS

CITY           SKY/WX    TMP DP  RH WIND       PRES   REMARKS
PUNTA GORDA    CLEAR     74  59  59 E6        30.06R
FT MYERS       CLEAR     76  60  57 E9        30.04R
SOUTHWEST INTL CLEAR     75  60  59 E9        30.04R
NAPLES         CLEAR     77  63  61 E9        30.02R
MARCO ISLAND   CLOUDY    75  63  64 NE7       30.03R
MARATHON       PTCLDY    79  70  74 E14       30.01R
KEY WEST NAS   PTCLDY    76  71  85 E16G22    30.00R
KEY WEST INTL  PTCLDY    77  73  87 E10       30.01R

STATION/POSITION SKY/WX   TEMP    WIND        PRES    WAVE   SWELL
                          AIR SEA DIR/SP/G            HT/PER HT/PER
                          (F)     (DEG/KT/KT) (MB)    (FT/S) (FT/S)
NAPLES                        72              1016.6R
26.0N   85.6W              75 77   90/ 16/ 19 1015.6R   6/ 7   2/11
DRY TORTUGAS               77      90/ 19/ 23 1015.7R
SAND KEY                   78     100/ 22/ 24 1016.1R
LONG KEY                   77 78   70/ 16/ 18 1016.8R
MOLASSES REEF              77 79   60/ 18/ 20 1016.8R

$$
FLZ067-068-071>074-168-172>174-040000-
SOUTHEAST FLORIDA

CITY           SKY/WX    TMP DP  RH WIND       PRES   REMARKS
W PALM BEACH   MOCLDY    74  61  63 E9        30.07S
BOCA RATON     PTCLDY    75  61  60 E13G18    30.07R
FT LAUDER-EXEC PTCLDY    74  60  61 NE9       30.06R
FT LAUDERDALE  MOCLDY    75  63  66 NE8       30.05R
POMPANO BEACH  PTCLDY    74  62  66 NE14      30.06R
PEMBROKE PINES MOCLDY    75  62  64 NE10      30.07R
OPA LOCKA      CLOUDY    75  63  66 NE12      30.06R
MIAMI          MOCLDY    75  64  68 NE10      30.05R
WEST KENDALL   PTCLDY    75  64  68 NE9       30.04R
HOMESTEAD      PTCLDY    74  68  83 NE10      30.03S

STATION/POSITION SKY/WX   TEMP    WIND        PRES    WAVE   SWELL
                          AIR SEA DIR/SP/G            HT/PER HT/PER
                          (F)     (DEG/KT/KT) (MB)    (FT/S) (FT/S)
PORT EVERGLADES            75      50/ 14/ 18 1017.7R
VIRGINIA KEY               76 83   50/  6/ 12 1017.7R
LAKE WORTH                 74 78   70/ 14/ 16 1017.9R
FOWEY ROCKS                76 78   40/ 14/ 15 1017.9R

$$





USA.gov is the U.S. government's official web portal to all federal, state and local government web resources and services.